DW5338 Weather Reports


time (UTC)temp
F
wind
direction
speed
knots
gust
knots
rain 1hr
in
rain 24hr
in
rain mn
in
humidity
%
barometer
mb
20220812173338 71 45 6.1 12.2 0.00 0.00 0.00 50 1028.7
20220812172838 70 180 4.3 7.8 0.00 0.00 0.00 51 1028.7
20220812172338 70 67 5.2 11.3 0.00 0.00 0.00 51 1028.7
20220812171835 70 67 9.6 9.6 0.00 0.00 0.00 51 1028.7
20220812171335 70 45 1.7 10.4 0.00 0.00 0.00 51 1029.1
20220812170835 70 0 4.3 8.7 0.00 0.00 0.00 51 1029.1
20220812170335 69 292 0.0 7.0 0.00 0.00 0.00 52 1029.1
20220812165838 69 67 2.6 7.0 0.00 0.00 0.00 52 1029.1
20220812165335 69 45 5.2 8.7 0.00 0.00 0.00 52 1029.1
20220812164835 69 112 3.5 10.4 0.00 0.00 0.00 52 1029.1
20220812164335 69 112 4.3 8.7 0.00 0.00 0.00 52 1029.5
20220812163838 69 67 4.3 8.7 0.00 0.00 0.00 52 1029.5
20220812163335 69 0 1.7 8.7 0.00 0.00 0.00 52 1029.5
20220812162838 68 22 2.6 7.8 0.00 0.00 0.00 52 1029.5
20220812162338 68 112 5.2 7.0 0.00 0.00 0.00 52 1029.5
20220812161838 68 112 5.2 7.8 0.00 0.00 0.00 53 1029.6
20220812161335 68 90 2.6 7.8 0.00 0.00 0.00 52 1029.6
20220812160838 68 112 3.5 6.1 0.00 0.00 0.00 53 1029.6
20220812160335 67 112 4.3 6.1 0.00 0.00 0.00 53 1029.6
20220812155838 67 67 2.6 6.1 0.00 0.00 0.00 53 1029.6
20220812155335 67 337 2.6 8.7 0.00 0.00 0.00 53 1030.0
20220812154838 67 67 2.6 8.7 0.00 0.00 0.00 54 1030.0
20220812154335 66 112 1.7 4.3 0.00 0.00 0.00 54 1030.0
20220812153835 66 112 0.9 7.8 0.00 0.00 0.00 54 1030.0
20220812153335 66 180 4.3 6.1 0.00 0.00 0.00 54 1030.0
20220812152838 65 112 6.1 8.7 0.00 0.00 0.00 54 1030.1
20220812152338 65 180 1.7 5.2 0.00 0.00 0.00 55 1030.1
20220812151838 65 202 1.7 8.7 0.00 0.00 0.00 55 1030.1
20220812151338 64 135 4.3 7.0 0.00 0.00 0.00 56 1030.1
20220812150835 64 157 5.2 7.8 0.00 0.00 0.00 57 1030.1
20220812150335 64 292 0.0 7.0 0.00 0.00 0.00 57 1030.2
20220812145835 63 157 5.2 6.1 0.00 0.00 0.00 57 1030.2
20220812145338 63 202 0.9 7.8 0.00 0.00 0.00 58 1030.2
20220812144835 62 112 4.3 7.8 0.00 0.00 0.00 58 1030.2
20220812144335 62 135 2.6 6.1 0.00 0.00 0.00 58 1030.3
20220812143838 61 112 2.6 6.1 0.00 0.00 0.00 57 1030.3
20220812143341 61 247 0.9 6.1 0.00 0.00 0.00 57 1030.3
20220812142835 60 315 2.6 4.3 0.00 0.00 0.00 57 1030.3
20220812142338 60 45 1.7 4.3 0.00 0.00 0.00 57 1030.4
20220812141838 60 112 0.9 3.5 0.00 0.00 0.00 57 1030.4
20220812141341 60 157 2.6 2.6 0.00 0.00 0.00 57 1030.1
20220812140835 59 225 0.9 2.6 0.00 0.00 0.00 57 1030.1
20220812140335 59 225 1.7 3.5 0.00 0.00 0.00 58 1030.2
20220812135841 59 202 2.6 3.5 0.00 0.00 0.00 58 1030.2
20220812135335 59 202 2.6 2.6 0.00 0.00 0.00 58 1030.2
20220812134841 59 180 0.9 2.6 0.00 0.00 0.00 58 1030.2
20220812134335 58 225 2.6 2.6 0.00 0.00 0.00 57 1030.3
20220812133841 58 202 1.7 2.6 0.00 0.00 0.00 57 1030.3
20220812133338 58 202 1.7 1.7 0.00 0.00 0.00 57 1030.4
20220812132835 58 247 0.9 2.6 0.00 0.00 0.00 57 1030.1
20220812132335 58 202 0.9 2.6 0.00 0.00 0.00 57 1030.1
20220812131838 58 270 1.7 2.6 0.00 0.00 0.00 56 1030.1
20220812131341 58 270 0.9 2.6 0.00 0.00 0.00 56 1030.2
20220812130835 58 247 2.6 4.3 0.00 0.00 0.00 56 1030.2
20220812130341 58 247 2.6 7.0 0.00 0.00 0.00 56 1030.2
20220812125835 58 202 2.6 4.3 0.00 0.00 0.00 56 1030.0
20220812125338 58 180 3.5 4.3 0.00 0.00 0.00 55 1030.0
20220812124835 58 202 2.6 6.1 0.00 0.00 0.00 55 1030.0
20220812124338 58 247 3.5 7.0 0.00 0.00 0.00 55 1030.1
20220812123835 58 202 4.3 5.2 0.00 0.00 0.00 55 1030.1
20220812123338 58 202 2.6 7.0 0.00 0.00 0.00 54 1030.1
20220812122838 59 202 7.8 7.8 0.00 0.00 0.00 54 1029.9
20220812122335 59 292 2.6 7.0 0.00 0.00 0.00 53 1029.9
20220812121838 59 247 6.1 7.8 0.00 0.00 0.00 53 1029.9
20220812121338 59 225 6.1 7.8 0.00 0.00 0.00 53 1030.0
20220812120835 59 202 4.3 8.7 0.00 0.00 0.00 53 1029.7
20220812120335 59 225 8.7 8.7 0.00 0.00 0.00 53 1029.7
20220812115841 59 202 6.1 7.8 0.00 0.00 0.00 53 1029.7
20220812115335 59 225 5.2 8.7 0.00 0.00 0.00 53 1029.8
20220812114838 60 225 6.1 8.7 0.00 0.00 0.00 52 1029.8
20220812114338 60 247 5.2 7.8 0.00 0.00 0.00 52 1029.8
20220812113835 60 247 5.2 7.8 0.00 0.00 0.00 52 1029.8
20220812113335 60 247 2.6 7.8 0.00 0.00 0.00 52 1029.5
20220812112838 60 247 5.2 7.0 0.00 0.00 0.00 52 1029.6
20220812112335 60 202 5.2 9.6 0.00 0.00 0.00 52 1029.6
20220812111835 60 225 6.1 7.8 0.00 0.00 0.00 52 1029.6
20220812111335 60 225 7.0 9.6 0.00 0.00 0.00 51 1029.7
20220812110835 60 225 6.1 7.8 0.00 0.00 0.00 51 1029.7
20220812110338 60 225 5.2 7.8 0.00 0.00 0.00 51 1029.7
20220812105838 60 225 4.3 7.0 0.00 0.00 0.00 51 1029.7
20220812105335 60 247 5.2 8.7 0.00 0.00 0.00 51 1029.7
20220812104835 60 225 7.0 7.0 0.00 0.00 0.00 51 1029.8
20220812104335 60 225 5.2 7.8 0.00 0.00 0.00 51 1029.4
20220812103838 60 225 5.2 7.0 0.00 0.00 0.00 51 1029.5
20220812103335 60 225 5.2 7.8 0.00 0.00 0.00 51 1029.5
20220812102835 60 180 5.2 8.7 0.00 0.00 0.00 51 1029.9
20220812102338 60 225 4.3 7.0 0.00 0.00 0.00 51 1029.6
20220812101835 60 225 5.2 7.0 0.00 0.00 0.00 51 1029.6
20220812101335 60 225 5.2 8.7 0.00 0.00 0.00 51 1029.6
20220812100835 60 225 7.8 8.7 0.00 0.00 0.00 50 1029.6
20220812100338 61 225 4.3 7.0 0.00 0.00 0.00 50 1029.7
20220812095835 60 225 5.2 7.8 0.00 0.00 0.00 50 1029.7
20220812095338 60 247 4.3 8.7 0.00 0.00 0.00 50 1029.7
20220812094835 60 270 4.3 7.0 0.00 0.00 0.00 50 1029.7
20220812094335 60 247 5.2 7.8 0.00 0.00 0.00 51 1029.7
20220812093838 60 247 2.6 7.0 0.00 0.00 0.00 51 1029.8
20220812093341 60 247 5.2 7.0 0.00 0.00 0.00 51 1029.8
20220812092835 60 247 4.3 7.0 0.00 0.00 0.00 51 1029.8
20220812092335 60 202 6.1 7.0 0.00 0.00 0.00 51 1029.5
20220812091841 60 247 5.2 8.7 0.00 0.00 0.00 51 1029.5
20220812091335 60 225 5.2 8.7 0.00 0.00 0.00 52 1029.9
20220812090835 60 247 4.3 7.0 0.00 0.00 0.00 52 1029.5
20220812090341 60 202 4.3 5.2 0.00 0.00 0.00 52 1029.6
20220812085835 60 225 4.3 7.0 0.00 0.00 0.00 52 1029.6
20220812085335 60 247 7.0 8.7 0.00 0.00 0.00 52 1029.6
20220812084838 60 225 6.1 8.7 0.00 0.00 0.00 51 1029.6
20220812084338 60 202 4.3 7.0 0.00 0.00 0.00 52 1029.6
20220812083841 60 225 5.2 7.0 0.00 0.00 0.00 52 1029.6
20220812083338 60 270 4.3 9.6 0.00 0.00 0.00 52 1029.7
20220812082835 60 247 10.4 10.4 0.00 0.00 0.00 53 1029.7
20220812082338 60 225 7.0 8.7 0.00 0.00 0.00 53 1029.3
20220812081838 59 225 5.2 8.7 0.00 0.00 0.00 53 1029.4
20220812081338 59 202 4.3 8.7 0.00 0.00 0.00 53 1029.4
20220812080838 59 247 5.2 8.7 0.00 0.00 0.00 53 1029.4
20220812080335 60 225 5.2 7.0 0.00 0.00 0.00 53 1029.4
20220812075838 60 247 5.2 8.7 0.00 0.00 0.00 53 1029.4
20220812075335 60 202 8.7 8.7 0.00 0.00 0.00 52 1029.4
20220812074835 60 202 7.0 8.7 0.00 0.00 0.00 52 1029.4
20220812074335 61 202 6.1 6.1 0.00 0.00 0.00 51 1029.4
20220812073835 61 225 5.2 6.1 0.00 0.00 0.00 51 1029.4
20220812073335 61 202 4.3 5.2 0.00 0.00 0.00 50 1029.4
20220812072835 62 292 5.2 7.0 0.00 0.00 0.00 50 1029.4
20220812072338 62 202 4.3 7.0 0.00 0.00 0.00 49 1029.4
20220812071835 62 292 7.0 9.6 0.00 0.00 0.00 49 1029.5
20220812071338 62 225 2.6 7.0 0.00 0.00 0.00 49 1029.5
20220812070835 62 247 5.2 8.7 0.00 0.00 0.00 49 1029.5
20220812070335 62 247 4.3 7.8 0.00 0.00 0.00 49 1029.5
20220812065838 62 202 4.3 7.8 0.00 0.00 0.00 49 1029.5
20220812065338 62 225 2.6 7.0 0.00 0.00 0.00 49 1029.5
20220812064841 62 247 4.3 7.8 0.00 0.00 0.00 49 1029.5
20220812064335 63 247 4.3 7.0 0.00 0.00 0.00 49 1029.5
20220812063835 63 202 3.5 7.0 0.00 0.00 0.00 49 1029.5
20220812063335 63 247 4.3 7.0 0.00 0.00 0.00 49 1029.2
20220812062838 63 247 4.3 7.8 0.00 0.00 0.00 49 1029.6
20220812062335 63 247 6.1 8.7 0.00 0.00 0.00 49 1029.6
20220812061838 63 225 5.2 7.0 0.00 0.00 0.00 49 1029.6
20220812061335 63 247 4.3 7.8 0.00 0.00 0.00 48 1029.6
20220812060838 63 225 5.2 9.6 0.00 0.00 0.00 48 1029.6
20220812060335 63 202 5.2 6.1 0.00 0.00 0.00 48 1029.6
20220812055838 63 225 5.2 6.1 0.00 0.00 0.00 48 1029.6
20220812055335 63 225 5.2 7.8 0.00 0.00 0.00 48 1029.6
20220812054841 63 247 5.2 7.8 0.00 0.00 0.00 48 1029.2
20220812054335 64 202 6.1 7.0 0.00 0.00 0.00 48 1029.2
20220812053835 64 247 5.2 7.0 0.00 0.00 0.00 48 1029.2
20220812053338 64 247 7.0 7.0 0.00 0.00 0.00 48 1029.2
20220812052838 64 247 7.0 7.0 0.00 0.00 0.00 48 1029.2
20220812052335 64 225 5.2 8.7 0.00 0.00 0.00 48 1029.2
20220812051835 64 247 4.3 7.8 0.00 0.00 0.00 48 1029.2
20220812051338 64 247 4.3 8.7 0.00 0.00 0.00 48 1029.2
20220812050835 64 247 7.0 9.6 0.00 0.00 0.00 47 1029.2
20220812050335 64 202 2.6 9.6 0.00 0.00 0.00 48 1029.2
20220812045838 64 180 7.0 8.7 0.00 0.00 0.00 48 1029.2
20220812045341 64 202 5.2 8.7 0.00 0.00 0.00 48 1029.2
20220812044835 65 247 4.3 8.7 0.00 0.00 0.00 48 1029.2
20220812044338 65 247 4.3 7.0 0.00 0.00 0.00 48 1029.1
20220812043838 65 225 5.2 8.7 0.00 0.00 0.00 48 1029.4
20220812043341 65 247 4.3 7.0 0.00 0.00 0.00 48 1029.1
20220812042839 65 247 4.3 7.8 0.00 0.00 0.00 49 1029.1
20220812042335 64 247 5.2 7.8 0.00 0.00 0.00 49 1029.1
20220812041841 64 225 5.2 7.0 0.00 0.00 0.00 49 1029.1
20220812041338 64 225 4.3 7.0 0.00 0.00 0.00 49 1029.4
20220812040838 64 180 7.0 7.0 0.00 0.00 0.00 50 1029.1
20220812040338 65 247 2.6 7.0 0.00 0.00 0.00 50 1029.0
20220812035838 65 225 6.1 6.1 0.00 0.00 0.00 51 1029.0
20220812035338 65 225 2.6 7.0 0.00 0.00 0.00 51 1029.0
20220812034835 65 180 5.2 6.1 0.00 0.00 0.00 51 1028.7
20220812034335 65 180 5.2 9.6 0.00 0.00 0.00 51 1028.7
20220812033835 65 202 3.5 10.4 0.00 0.00 0.00 51 1028.6
20220812033338 65 247 9.6 9.6 0.00 0.00 0.00 52 1028.6
20220812032835 65 225 5.2 7.8 0.00 0.00 0.00 52 1028.6
20220812032335 65 225 7.0 8.7 0.00 0.00 0.00 53 1028.6
20220812031841 65 247 4.3 7.8 0.00 0.00 0.00 53 1028.2
20220812031335 66 247 5.2 7.0 0.00 0.00 0.00 53 1028.5
20220812030838 66 225 3.5 7.0 0.00 0.00 0.00 53 1028.2
20220812030335 66 225 4.3 7.0 0.00 0.00 0.00 52 1028.2
20220812025835 67 225 4.3 7.0 0.00 0.00 0.00 52 1028.1
20220812025335 67 202 4.3 7.0 0.00 0.00 0.00 52 1028.1
20220812024841 68 247 5.2 7.0 0.00 0.00 0.00 52 1028.1
20220812024335 68 202 5.2 7.0 0.00 0.00 0.00 51 1027.8
20220812023835 69 247 5.2 6.1 0.00 0.00 0.00 50 1027.7
20220812023335 69 247 4.3 7.0 0.00 0.00 0.00 50 1027.7
20220812022835 70 247 4.3 5.2 0.00 0.00 0.00 49 1027.7
20220812022341 70 225 4.3 7.0 0.00 0.00 0.00 48 1027.3
20220812021838 71 202 5.2 7.0 0.00 0.00 0.00 47 1027.3
20220812021335 71 247 3.5 6.1 0.00 0.00 0.00 46 1027.3
20220812020841 72 202 2.6 4.3 0.00 0.00 0.00 44 1027.2
20220812020335 72 247 0.9 3.5 0.00 0.00 0.00 43 1027.2
20220812015840 72 247 2.6 4.3 0.00 0.00 0.00 42 1027.2
20220812015335 72 270 2.6 4.3 0.00 0.00 0.00 42 1027.1
20220812014835 73 270 3.5 4.3 0.00 0.00 0.00 42 1027.1
20220812014338 73 270 1.7 2.6 0.00 0.00 0.00 42 1027.1
20220812013838 73 270 2.6 2.6 0.00 0.00 0.00 42 1027.0
20220812013338 73 225 2.6 2.6 0.00 0.00 0.00 42 1027.0
20220812012838 73 247 0.9 0.9 0.00 0.00 0.00 41 1027.0
20220812012335 73 292 1.7 2.6 0.00 0.00 0.00 40 1026.9
20220812011838 73 292 2.6 2.6 0.00 0.00 0.00 41 1026.9
20220812011335 73 0 2.6 3.5 0.00 0.00 0.00 41 1026.9
20220812010835 74 315 2.6 3.5 0.00 0.00 0.00 41 1026.8
20220812010335 74 337 2.6 3.5 0.00 0.00 0.00 41 1026.8
20220812005835 74 0 2.6 2.6 0.00 0.00 0.00 41 1026.8
20220812005338 74 337 2.6 2.6 0.00 0.00 0.00 41 1026.7
20220812004838 74 292 2.6 4.3 0.00 0.00 0.00 41 1026.7
20220812004335 74 315 2.6 2.6 0.00 0.00 0.00 42 1026.7
20220812003838 74 337 2.6 3.5 0.00 0.00 0.00 42 1026.6
20220812003338 74 22 0.9 3.5 0.00 0.00 0.00 42 1026.6
20220812002835 74 315 2.6 5.2 0.00 0.00 0.00 41 1026.6
20220812002335 74 337 4.3 5.2 0.00 0.00 0.00 41 1026.5
20220812001835 74 337 5.2 7.0 0.00 0.00 0.00 41 1026.8
20220812001335 75 292 2.6 5.2 0.00 0.00 0.00 41 1026.8
20220812000838 75 337 2.6 7.0 0.00 0.00 0.00 41 1026.4
20220812000338 75 247 5.2 7.0 0.00 0.00 0.00 41 1026.7
20220811235838 75 292 4.3 8.7 0.00 0.00 0.00 41 1026.7
20220811235338 75 337 5.2 7.0 0.00 0.00 0.00 41 1026.6
20220811234838 75 0 6.1 6.1 0.00 0.00 0.00 42 1026.6
20220811234335 75 22 2.6 4.3 0.00 0.00 0.00 42 1026.6
20220811233838 75 22 2.6 4.3 0.00 0.00 0.00 42 1026.5
20220811233341 74 337 3.5 5.2 0.00 0.00 0.00 42 1026.5
20220811232838 74 45 4.3 6.1 0.00 0.00 0.00 42 1026.5
20220811232335 74 22 2.6 4.3 0.00 0.00 0.00 43 1026.7
20220811231835 74 22 0.0 3.5 0.00 0.00 0.00 43 1026.7
20220811231335 74 0 1.7 5.2 0.00 0.00 0.00 42 1026.7
20220811230835 74 337 2.6 5.2 0.00 0.00 0.00 41 1026.7
20220811230341 74 45 2.6 7.0 0.00 0.00 0.00 41 1026.6
20220811225835 74 202 0.9 5.2 0.00 0.00 0.00 41 1026.6
20220811225335 74 45 2.6 6.1 0.00 0.00 0.00 41 1026.6
20220811224838 74 22 1.7 8.7 0.00 0.00 0.00 40 1026.5
20220811224338 74 0 4.3 8.7 0.00 0.00 0.00 40 1026.5
20220811223835 74 22 5.2 7.8 0.00 0.00 0.00 40 1026.5
20220811223338 75 135 3.5 7.8 0.00 0.00 0.00 40 1026.5
20220811222838 75 22 4.3 8.7 0.00 0.00 0.00 40 1026.4
20220811222338 75 67 5.2 7.8 0.00 0.00 0.00 39 1026.4
20220811221835 75 67 5.2 9.6 0.00 0.00 0.00 39 1026.4
20220811221335 76 0 4.3 9.6 0.00 0.00 0.00 38 1026.4
20220811220841 76 45 4.3 11.3 0.00 0.00 0.00 38 1026.3
20220811220335 77 45 8.7 10.4 0.00 0.00 0.00 37 1026.3
20220811215838 78 337 2.6 11.3 0.00 0.00 0.00 37 1026.6
20220811215335 79 22 5.2 8.7 0.00 0.00 0.00 37 1026.6
20220811214838 79 45 7.0 10.4 0.00 0.00 0.00 37 1026.5
20220811214335 79 90 7.0 9.6 0.00 0.00 0.00 38 1026.5
20220811213835 79 0 1.7 10.4 0.00 0.00 0.00 37 1026.5
20220811213338 79 45 8.7 11.3 0.00 0.00 0.00 37 1026.5
20220811212835 79 67 7.0 12.2 0.00 0.00 0.00 36 1026.4
20220811212335 79 45 7.0 12.2 0.00 0.00 0.00 36 1026.4
20220811211835 79 67 6.1 11.3 0.00 0.00 0.00 36 1026.7
20220811211338 79 67 5.2 11.3 0.00 0.00 0.00 35 1026.7
20220811210838 79 45 2.6 11.3 0.00 0.00 0.00 36 1026.7
20220811210335 79 67 4.3 11.3 0.00 0.00 0.00 36 1026.7
20220811205835 79 0 5.2 12.2 0.00 0.00 0.00 36 1026.6
20220811205341 79 45 8.7 11.3 0.00 0.00 0.00 36 1026.6
20220811204838 79 67 2.6 11.3 0.00 0.00 0.00 36 1026.6
20220811204338 79 45 7.0 11.3 0.00 0.00 0.00 36 1026.6
20220811203835 79 247 0.9 12.2 0.00 0.00 0.00 36 1026.9
20220811203338 78 0 3.5 11.3 0.00 0.00 0.00 36 1026.8
20220811202838 79 45 7.0 12.2 0.00 0.00 0.00 36 1026.8
20220811202338 79 45 7.8 13.0 0.00 0.00 0.00 37 1026.8
20220811201838 79 112 3.5 12.2 0.00 0.00 0.00 37 1027.1
20220811201341 79 22 13.0 13.0 0.00 0.00 0.00 37 1027.1
20220811200841 79 292 0.9 11.3 0.00 0.00 0.00 37 1027.1
20220811200335 79 292 4.3 11.3 0.00 0.00 0.00 37 1027.1
20220811195835 79 90 5.2 9.6 0.00 0.00 0.00 38 1027.4
20220811195338 78 22 2.6 11.3 0.00 0.00 0.00 39 1027.4
20220811194838 78 67 5.2 11.3 0.00 0.00 0.00 39 1027.3
20220811194338 78 22 7.0 10.4 0.00 0.00 0.00 39 1027.3
20220811193835 78 90 8.7 9.6 0.00 0.00 0.00 39 1027.3
20220811193338 78 22 8.7 12.2 0.00 0.00 0.00 39 1027.3
20220811192838 78 225 0.9 13.0 0.00 0.00 0.00 39 1027.3
20220811192338 78 45 3.5 12.2 0.00 0.00 0.00 39 1027.3
20220811191838 77 337 1.7 13.0 0.00 0.00 0.00 39 1027.3
20220811191335 77 157 4.3 12.2 0.00 0.00 0.00 38 1027.6
20220811190835 77 112 3.5 12.2 0.00 0.00 0.00 38 1027.3
20220811190335 77 45 5.2 13.9 0.00 0.00 0.00 38 1027.2
20220811185835 78 45 4.3 11.3 0.00 0.00 0.00 37 1027.6
20220811185335 77 112 5.2 7.8 0.00 0.00 0.00 38 1027.2
20220811184835 77 135 2.6 11.3 0.00 0.00 0.00 38 1027.6
20220811184335 77 45 5.2 9.6 0.00 0.00 0.00 38 1027.2
20220811183835 77 22 4.3 11.3 0.00 0.00 0.00 38 1027.6
20220811183335 77 112 6.1 11.3 0.00 0.00 0.00 38 1027.6
20220811182835 77 90 4.3 9.6 0.00 0.00 0.00 38 1027.5
20220811182335 77 315 0.9 8.7 0.00 0.00 0.00 39 1027.5
20220811181838 77 0 2.6 9.6 0.00 0.00 0.00 39 1027.5
20220811181335 77 67 5.2 11.3 0.00 0.00 0.00 39 1027.8
20220811180835 77 247 2.6 8.7 0.00 0.00 0.00 39 1027.8
20220811180335 77 22 2.6 7.0 0.00 0.00 0.00 40 1027.8
20220811175838 76 67 2.6 10.4 0.00 0.00 0.00 40 1027.8
20220811175335 76 22 6.1 7.8 0.00 0.00 0.00 41 1028.1
20220811174838 76 67 4.3 9.6 0.00 0.00 0.00 40 1028.1
20220811174338 76 0 1.7 8.7 0.00 0.00 0.00 40 1028.1
20220811173838 76 22 5.2 5.2 0.00 0.00 0.00 40 1028.1